DECAYED

STARLINK-2162, 47748 (Decayed)

Orbit data source: Space-Track

STARLINK-2162, 47748 was a payload satellite owned by SpaceX/Seattle (US) in LEO that was launched on Thu, 04 Mar 2021 UTC via an FALCON 9 launch vehicle from the Air Force Eastern Test Range (AFETR). Payload-class satellites include a variety of spacecraft equipped with specific instruments for various scientific and technological missions. These include communications satellites like Starlink; space stations such as the ISS; scientific satellites like the Hubble; Earth observation satellites from companies like Planet Labs, Umbra, and HawkEye 360; GPS; miniature CubeSats for education and research; and military/defense satellites.

Not visible in the next 10 days
Identifier
47748, 2021-017AC
Orbit
Decayed
Country
Flag of USUS
Related business
Manufacturer
SpaceX/Seattle
Mission
Decayed Commercial Communications
Bus & Motor
STARLINK, Unknown motor
Mass
260 kg wet, ~248 kg dry
Launch date (UTC)
2021-03-04 (5 years ago)
Launch vehicle
FALCON 9
Launch site
Air Force Eastern Test Range (AFETR)
Object type
Payload
Rocket body
Debris
Shape & HBR
Box + 1 Pan, 10.1 m
Radar Cross Section
13.562 m², Large (>1 m²)

Expand to show TLE details & history
Last TLE update: 1 month ago

TLE from 1 month ago
0 STARLINK-2162
1 47748U 21017AC  26194.74907891  .11187150  12575-4  21868-3 0  9994
2 47748  53.1365 289.4939 0006289 287.2735  72.7627 16.46854687297822
Epoch: 2026-07-13T17:58Z
TLE epoch observation values (Epoch: 2026-07-13T17:58:40.417Z)
Latitude
-0.00006°
Longitude
88.19632°
Altitude
147.36 km
Speed
7.82 km/s
True Right ascension
19h 17m 58s
True Declination
0° 00' 00"
Sunlit
Object was in full shadow at epoch
Visualization orbit readout
Latitude
Unknown
Longitude
Unknown
Altitude
Unknown
Speed
Unknown
Apparent Right ascension
Unknown
Apparent Declination
Unknown
Sunlit
N/A
Visualization observer readout
Local Sidereal Time
04:18:51
Azimuth
Unknown
Elevation
Unknown
Doppler factor
Unknown
Orbital elements
Apogee altitude
152.008 km
Perigee altitude
143.8 km
Semi-major axis
6,526.041 km
Eccentricity
0.00063
Inclination
53.1365°
RAAN
289.4939°
Arg. of periapsis
287.2735°
True anomaly
72.83155°
Mean anomaly
72.7627°
Eccentric anomaly
72.79712°
Mean motion
4.11688 °/min
Orbital period
87.44 mins
BSTAR
0.00021868
Loading maneuver chart data...
Computing Atmospheric mass density...

Documentation

Showing up to 5 results
|